Dewpoint
66 65 65 65 64 64 64 64 64 64 65 64 62 59 56 53 51 48 46 44 43 42
62 65 65 65 65 65 65 64 64 64 63 62 59 57 54 51 49 47 46 44 44 44
56 61 64 65 65 65 64 64 63 62 61 58 57 54 53 50 48 46 45 45 43 43
57 56 62 64 64 64 64 63 60 61 59 56 55 53 52 49 45 44 43 42 41 40
62 59 62 63 63 64 64 59 59 59 57 55 53 51 49 45 44 43 42 41 40 39
63 63 63 63 63 63 61 57 57 55 54 52 51 49 47 44 43 42 41 41 39 38
61 63 63 63 62 59 57 56 54 53 52 51 49 47 44 43 42 42 41 41 40 39
58 62 62 60 58 58 57 55 53 52 50 48 47 45 44 43 43 42 41 40 40 39
56 60 59 57 57 55 54 52 51 49 48 47 46 44 43 43 42 41 40 38 39 38
52 57 58 55 54 53 52 50 49 48 47 46 45 43 42 42 41 39 39 37 37 36
48 53 56 54 52 52 49 49 48 47 47 46 43 41 40 40 40 38 37 37 36 35
43 51 54 53 52 49 48 48 47 47 46 42 40 39 39 39 38 37 36 36 36 34
44 46 52 52 50 49 49 47 46 45 43 42 39 38 38 38 38 36 35 35 34 33
44 45 49 53 50 48 47 46 44 43 42 41 39 38 38 38 37 35 34 33 32 32
Wind_Speed
30 28 29 30 30 27 27 26 24 28 27 26 24 21 19 16 15 15 17 16 12 11
27 30 32 33 30 28 26 24 23 25 26 23 23 24 25 24 26 19 15 20 15 12
28 30 32 31 32 29 26 23 22 25 25 23 23 22 22 19 19 22 18 10 16 13
26 28 28 30 29 29 24 22 22 25 24 24 23 21 20 19 22 22 20 17 19 17
25 21 22 24 26 24 22 21 24 22 23 22 22 23 24 26 25 27 26 24 25 21
22 17 20 22 21 16 18 21 21 23 24 24 24 26 25 27 29 27 28 26 25 24
24 19 18 17 16 21 21 23 23 23 22 24 25 26 28 28 30 27 26 26 25 25
28 21 11 15 19 22 23 22 22 22 21 24 26 26 30 29 32 31 26 23 22 20
25 19 11 12 16 15 16 19 20 21 24 25 22 30 34 34 30 29 29 26 19 18
23 20 9 8 9 14 16 17 19 20 23 25 23 35 36 36 29 29 27 25 24 21
20 19 12 11 13 13 14 19 21 21 23 24 25 37 38 37 30 27 27 27 26 22
21 17 15 15 15 17 16 15 17 20 23 24 27 36 39 35 30 27 23 21 21 22
22 21 18 20 21 19 17 14 18 20 22 26 32 36 40 34 26 26 22 20 19 20
25 22 23 22 17 21 23 17 17 19 20 23 31 32 32 31 29 27 27 21 19 16
Wind_Direction
241 240 238 238 235 232 228 222 212 207 208 206 192 183 169 177 173 183 173 180 182 171
256 245 240 238 237 235 231 229 208 200 200 194 181 180 172 173 174 169 172 170 161 152
271 257 248 241 236 231 226 220 200 188 194 185 178 174 170 166 162 160 158 158 139 137
274 262 247 240 238 232 221 200 185 187 189 181 176 170 167 158 151 143 132 125 117 112
289 265 244 240 238 233 212 177 181 190 188 180 172 163 161 152 149 144 142 141 136 131
304 260 240 234 231 217 182 175 184 182 180 172 167 161 159 153 148 150 149 148 142 143
316 284 239 232 198 178 177 182 182 179 175 169 162 157 152 153 146 147 150 152 150 152
316 303 252 193 186 186 184 184 175 167 167 160 158 158 156 156 151 150 150 150 149 150
316 299 275 237 186 185 172 166 166 166 162 162 164 164 159 153 154 152 149 145 144 140
322 302 259 231 191 169 165 160 161 166 165 165 164 161 157 150 151 149 148 144 142 144
321 304 249 208 190 170 166 170 169 171 172 167 165 160 154 147 148 148 148 148 151 152
311 295 240 209 194 171 168 180 180 173 170 164 161 157 150 145 149 147 145 144 145 148
298 293 249 214 193 173 176 190 179 173 172 167 165 164 153 149 148 140 139 138 137 141
292 283 266 234 203 169 173 164 187 172 170 168 166 163 151 150 148 147 143 143 141 141